Weather in Seleznevo

Russia / Saint-Petersburg and Leningrad Oblast     60°45′24″N   28°37′09″E
temp.,
°C
wind,
m/s
gust,
m/s
humid.,
%
clouds,
%
prec.,
mm/h
press.,
hPa
HPBL,
m
5 march, fri
fri500:00−6nnw398936 0.0 1006528
03:00−7nnw398958 0.0 1008492
06:00−8nw389176 0.0 1009344
09:00−9nnw398876 0.0 1010380
12:00−5nnw357751 0.0 1012504
15:00−3nnw367263 0.0 1013831
18:00−5nnw388079 0.0 1014540
21:00−7nw279039 0.0 1016178
6 march, sat
sat600:00−8nw25920 0.0 1017113
03:00−9w23940 0.0 101785
06:00−9wsw25940 0.0 1015139
09:00−7sw4108231 0.0 1013388
12:00−3sw7139199 0.3 1008950
15:00−1sw9169499 2.5 10021084
18:00−1wsw71491100 1.9 996981
21:00−1wsw71487100 2.5 991918
7 march, sun
sun700:00−4wnw51265100 1.3 990734
03:00−7wsw4117783 1.3 991672
06:00−10w4127727 0.0 990586
09:00−10w397725 0.0 989537
12:00−7nne237290 0.0 990635
15:00−6n466872 0.0 993955
18:00−7nnw6126948 0.0 9961220
21:00−8n6128573 0.1 999859
8 march, mon
mon800:00−10n61286100 0.0 1002791
03:00−12n61283100 0.1 1006745
06:00−13n61385100 0.0 1008640
09:00−15n61285100 0.0 1011561
12:00−13n5107896 0.0 1013527
15:00−11n597250 0.0 1015529
18:00−12nnw49750 0.0 1016511
21:00−13n238616 0.0 1017125
9 march, tue
tue900:00−13se1186100 0.0 101629
03:00−13se3588100 0.1 1014224
06:00−13se3794100 0.7 1012279
09:00−12e4893100 1.7 1012343
12:00−10e5889100 0.6 1014489
15:00−10e4780100 0.8 1015539
18:00−12e488386 0.0 1016431
21:00−15e399173 0.0 1017331